KC3RWX Weather Reports


time (UTC)temp
C
wind
direction
speed
KPH
gust
KPH
rain 1hr
cm
rain 24hr
cm
rain mn
cm
humidity
%
barometer
mb
20260506033005 18 50 6.4 12.9 0.00 0.00 0.00 46 1010.2
20260506031508 18 56 3.2 9.7 0.00 0.00 0.00 47 1010.2
20260506030015 19 34 8.0 16.1 0.00 0.00 0.00 46 1010.1
20260506024537 20 60 6.4 17.7 0.00 0.00 0.00 45 1010.0
20260506023004 20 44 1.6 14.5 0.00 0.00 0.00 44 1010.1
20260506021504 20 45 4.8 17.7 0.00 0.00 0.00 44 1010.1
20260506020009 20 46 4.8 22.5 0.00 0.00 0.00 42 1010.1
20260506014530 21 29 12.9 27.4 0.00 0.00 0.00 41 1009.9
20260506013021 21 56 8.0 19.3 0.00 0.00 0.00 41 1009.8
20260506011525 21 47 16.1 22.5 0.00 0.00 0.00 40 1009.6
20260506010008 22 63 11.3 20.9 0.00 0.00 0.00 39 1009.5
20260506004512 22 53 14.5 25.7 0.00 0.00 0.00 37 1009.3
20260506003016 23 72 12.9 33.8 0.00 0.00 0.00 38 1009.1
20260506001520 22 58 16.1 25.7 0.00 0.00 0.00 39 1009.1
20260506000024 23 41 11.3 22.5 0.00 0.00 0.00 40 1008.9
20260505234507 23 66 16.1 24.1 0.00 0.00 0.00 39 1008.9
20260505233014 23 72 24.1 33.8 0.00 0.00 0.00 39 1008.7
20260505231522 23 48 16.1 27.4 0.00 0.00 0.00 40 1008.6
20260505230022 23 30 16.1 25.7 0.00 0.00 0.00 40 1008.6
20260505224526 23 56 17.7 38.6 0.00 0.00 0.00 39 1008.6
20260505223011 24 58 19.3 30.6 0.00 0.00 0.00 38 1008.7
20260505221515 24 43 22.5 37.0 0.00 0.00 0.00 38 1008.6
20260505220021 24 58 17.7 32.2 0.00 0.00 0.00 40 1008.6
20260505214530 24 44 16.1 41.8 0.00 0.00 0.00 39 1008.4
20260505213025 24 53 14.5 27.4 0.00 0.00 0.00 42 1008.3
20260505211512 24 43 14.5 30.6 0.00 0.00 0.00 41 1008.3
20260505210016 24 50 12.9 45.1 0.00 0.00 0.00 40 1008.2
20260505204521 24 309 22.5 38.6 0.00 0.00 0.00 40 1008.2
20260505203028 24 51 20.9 30.6 0.00 0.00 0.00 39 1008.3
20260505201525 25 51 19.3 29.0 0.00 0.00 0.00 38 1008.3
20260505200013 25 51 24.1 43.5 0.00 0.00 0.00 37 1008.4
20260505194517 25 69 20.9 30.6 0.00 0.00 0.00 37 1008.4
20260505193021 25 42 20.9 33.8 0.00 0.00 0.00 38 1008.6
20260505191526 25 44 16.1 29.0 0.00 0.00 0.00 38 1008.6
20260505190022 25 16 32.2 45.1 0.00 0.00 0.00 36 1008.9
20260505184516 25 54 27.4 35.4 0.00 0.00 0.00 38 1009.1
20260505183033 25 22 24.1 37.0 0.00 0.00 0.00 38 1009.3
20260505181523 25 54 22.5 37.0 0.00 0.00 0.00 40 1009.3
20260505180013 24 66 24.1 37.0 0.00 0.00 0.00 39 1009.6
20260505174512 25 51 27.4 45.1 0.00 0.00 0.00 41 1009.6
20260505173018 25 65 17.7 40.2 0.00 0.00 0.00 44 1009.8
20260505171520 24 67 17.7 33.8 0.00 0.00 0.00 45 1009.7
20260505170009 24 72 16.1 35.4 0.00 0.00 0.00 42 1009.9
20260505164509 24 101 17.7 41.8 0.00 0.00 0.00 44 1010.2
20260505163018 23 66 27.4 41.8 0.00 0.00 0.00 49 1010.5
20260505161519 23 106 14.5 30.6 0.00 0.00 0.00 49 1010.3
20260505153014 23 72 20.9 35.4 0.00 0.00 0.00 51 1010.8
20260505151515 22 29 19.3 32.2 0.00 0.00 0.00 48 1010.8
20260505124535 18 41 12.9 14.5 0.00 0.00 0.00 1011.5
20260505123031 18 36 8.0 12.9 0.00 0.00 0.00 1011.4
20260505121537 17 65 4.8 4.8 0.00 0.00 0.00 1011.3
20260505120040 17 79 1.6 3.2 0.00 0.00 0.00 74 1011.1
20260505114536 15 1.6 4.8 0.00 0.00 0.00 76 1011.0
20260505113031 14 146 0.0 1.6 0.00 0.00 0.00 79 1011.2
20260505111531 12 149 1.6 3.2 0.00 0.00 0.00 83 1011.1
20260505101541 11 162 3.2 4.8 0.00 0.00 0.00 82 1010.4
20260505100029 11 141 1.6 3.2 0.00 0.00 0.00 83 1010.4
20260505094536 11 172 1.6 6.4 0.00 0.00 0.00 82 1010.5
20260505093014 11 136 1.6 4.8 0.00 0.00 0.00 80 1010.2
20260505091526 12 83 0.0 4.8 0.00 0.00 0.00 79 1010.3
20260505090023 12 117 1.6 4.8 0.00 0.00 0.00 80 1010.2
20260505084505 12 82 1.6 6.4 0.00 0.00 0.00 77 1010.1
20260505083017 13 113 1.6 8.0 0.00 0.00 0.00 73 1010.2
20260505081530 15 358 4.8 14.5 0.00 0.00 0.00 67 1010.1
20260505080028 14 95 1.6 9.7 0.00 0.00 0.00 72 1010.1
20260505074529 14 129 0.0 6.4 0.00 0.00 0.00 74 1010.0
20260505073034 14 275 3.2 8.0 0.00 0.00 0.00 74 1010.1
20260505071527 15 72 3.2 16.1 0.00 0.00 0.00 69 1010.4
20260505070018 13 9 4.8 9.7 0.00 0.00 0.00 72 1009.6
20260505064522 14 107 1.6 4.8 0.00 0.00 0.00 68 1010.0
20260505063026 13 146 1.6 4.8 0.00 0.00 0.00 69 1010.1
20260505061511 13 141 1.6 3.2 0.00 0.00 0.00 68 1010.1
20260505060042 15 123 1.6 3.2 0.00 0.00 0.00 65 1010.1
20260505054518 15 121 3.2 4.8 0.00 0.00 0.00 63 1010.2
20260505053025 15 102 3.2 9.7 0.00 0.00 0.00 61 1010.3
20260505051529 15 78 4.8 11.3 0.00 0.00 0.00 62 1010.2
20260505041526 16 115 4.8 12.9 0.00 0.00 0.00 55 1010.0
20260505040028 16 131 9.7 22.5 0.00 0.00 0.00 54 1009.9
20260505034527 16 94 9.7 22.5 0.00 0.00 0.00 54 1009.8